Wetbulb
53.88 53.88 53.71 53.01 52.39 52.59 52.92 52.91 52.18 52.25 52.73 53.19 53.06 53.00 52.94 52.66 52.46 52.25 52.25 52.25 51.83 51.62 51.55 51.62 51.49 51.49 51.49 51.76 51.55 51.49 51.48 51.55 51.68 51.24 50.81 51.24 51.87 52.20 52.37 52.35 52.32 52.10 51.96 51.62 51.59 51.28 51.11 50.89 50.53 50.16 49.85 49.49 49.37 49.38 49.62 50.01 49.92 49.66 49.28 49.09 48.78 48.64 48.56 48.28 48.04 47.82 47.51 47.04 46.44
54.03 53.90 53.33 51.82 51.73 52.52 53.28 52.86 52.59 52.52 52.80 53.41 53.36 53.29 53.15 52.80 52.52 52.24 52.24 52.18 52.03 51.90 51.76 51.69 51.55 51.62 51.62 51.49 51.35 51.35 51.21 51.14 51.33 51.24 51.08 51.50 51.84 52.09 52.26 52.29 52.32 52.07 51.81 51.51 51.32 50.97 50.70 50.59 50.22 49.78 49.57 49.46 49.23 49.22 49.12 49.49 49.43 49.15 48.80 48.56 48.25 47.99 47.75 47.31 47.26 47.18 46.93 46.57 46.20
54.43 54.39 54.12 53.75 53.61 53.39 53.26 52.99 52.93 53.06 53.27 53.42 53.50 53.43 53.22 52.93 52.65 52.44 52.30 52.24 52.31 52.18 51.90 51.48 51.35 51.35 51.35 51.42 51.35 51.28 51.13 51.06 51.05 51.10 51.09 51.22 51.43 51.57 51.69 51.85 52.02 51.60 51.22 51.15 51.06 50.72 50.48 50.33 49.68 49.00 48.69 49.00 48.91 48.76 48.68 49.04 48.89 48.51 48.27 48.05 47.83 47.38 46.85 46.19 46.66 46.57 46.27 45.94 45.71
54.84 54.63 54.34 53.91 53.70 53.49 53.15 53.08 53.08 53.22 53.36 53.36 53.50 53.35 53.20 52.99 52.78 52.64 52.51 52.38 52.24 51.90 51.69 51.28 51.14 51.00 50.92 50.91 50.92 51.06 50.91 50.08 50.49 50.60 50.65 50.78 51.04 51.19 51.32 51.50 51.52 51.38 51.29 51.08 50.84 50.72 50.54 50.35 49.58 49.12 48.71 48.92 48.63 48.37 48.32 48.48 48.44 48.13 47.66 47.61 47.46 47.12 46.65 46.32 46.32 46.17 45.76 45.33 45.04
54.70 54.42 54.21 53.78 53.71 53.64 53.64 53.64 53.57 53.42 53.55 53.54 53.26 53.12 53.05 52.90 52.77 52.56 52.36 51.81 51.54 51.40 51.34 51.34 51.00 50.71 50.48 50.48 50.57 50.70 50.81 50.49 49.14 49.61 50.59 50.69 51.02 51.14 51.27 51.45 51.26 51.18 50.97 50.78 50.57 50.40 50.31 50.21 49.45 48.99 48.78 48.62 48.35 48.29 48.37 48.67 48.36 47.82 47.37 47.29 47.31 47.21 47.01 46.52 46.00 45.52 44.92 44.15 43.77
53.91 53.85 53.92 53.99 53.99 53.92 53.92 53.91 53.90 53.73 53.65 53.42 53.09 52.81 52.62 52.62 52.42 52.07 51.79 51.25 51.19 51.33 51.19 50.41 49.98 49.68 49.83 50.42 50.35 50.46 50.56 50.80 50.21 50.21 50.49 50.52 50.77 51.11 51.27 51.14 51.04 50.95 50.78 50.64 50.50 50.27 50.02 49.61 48.83 48.59 48.41 48.30 48.25 48.22 48.30 48.43 48.07 47.84 47.54 47.44 47.36 47.06 46.49 45.76 44.98 44.32 43.60 43.03 42.70
53.36 53.31 53.33 53.49 53.64 53.78 53.85 53.98 54.03 53.87 53.65 53.29 52.94 52.59 52.37 52.25 52.05 51.72 51.51 51.11 50.98 50.78 50.28 49.30 49.54 49.61 49.90 50.25 50.16 50.08 50.18 50.22 50.28 50.34 50.33 50.26 50.53 50.65 50.59 50.56 50.93 50.91 50.72 50.56 50.24 49.81 49.43 49.05 48.37 47.83 47.53 47.21 47.72 47.97 48.19 48.53 48.06 47.91 47.59 47.04 46.41 45.82 45.12 44.15 43.67 43.19 42.82 42.36 42.13
53.09 52.89 52.74 52.81 53.08 53.42 53.64 53.85 53.76 53.47 53.17 52.74 52.52 52.37 52.29 52.16 51.90 51.50 51.17 50.84 50.44 50.10 49.75 49.53 50.14 50.32 50.17 50.01 49.85 49.82 49.92 50.05 50.03 50.07 50.24 50.29 50.48 50.57 50.67 50.74 50.60 50.50 50.35 50.23 49.73 49.25 48.76 48.38 47.88 47.79 47.82 47.71 47.73 47.92 48.33 48.78 48.47 47.75 47.00 46.31 45.62 44.79 43.94 43.09 42.82 42.61 42.38 41.98 41.75
52.86 52.72 52.88 52.97 53.27 53.43 53.57 53.57 53.42 53.12 52.68 52.39 52.31 52.30 52.22 51.93 51.53 51.15 50.62 50.15 49.75 49.61 49.68 49.74 50.07 50.19 50.03 49.85 49.63 49.67 49.64 49.58 49.84 49.97 50.14 50.29 50.27 50.17 50.09 50.05 49.82 49.72 49.60 49.45 49.04 48.71 48.30 47.94 47.85 47.90 48.09 48.08 48.15 48.28 48.39 48.71 48.26 47.37 46.51 45.46 44.41 43.50 42.89 42.44 42.39 42.35 42.18 41.82 41.71
52.54 52.62 52.71 52.72 53.15 53.22 53.15 53.22 53.08 52.79 52.43 52.20 52.14 51.98 51.26 49.68 50.27 50.45 50.21 49.67 49.37 49.44 49.64 49.79 49.90 49.82 49.67 49.55 49.37 49.23 49.33 49.45 49.67 49.86 49.96 49.75 49.53 49.51 49.46 49.15 48.90 48.58 48.33 48.37 48.17 48.02 47.82 47.53 47.41 47.53 47.75 48.23 47.65 47.41 47.43 47.59 46.75 46.25 45.65 44.62 43.60 42.78 42.39 42.23 42.18 41.91 41.56 41.18 41.08
52.42 52.49 52.56 52.50 52.86 52.58 52.38 52.66 52.25 52.11 51.89 51.68 51.55 51.27 50.76 49.54 49.96 49.92 49.74 49.34 49.22 49.21 49.30 49.38 49.43 49.30 49.04 48.90 48.97 49.02 49.09 49.39 49.50 49.51 49.33 49.11 48.69 48.63 48.49 48.07 47.61 47.29 47.02 47.01 47.07 47.04 46.92 46.76 46.53 46.43 46.72 47.33 47.07 46.75 46.39 46.16 45.58 45.03 44.65 44.14 43.47 42.85 42.27 42.10 41.98 41.73 41.31 41.10 41.00
52.35 52.35 52.35 52.43 52.50 52.30 52.03 51.97 51.62 51.35 51.21 50.93 50.66 50.39 50.24 50.23 49.94 49.46 48.86 48.90 48.66 48.62 48.72 49.00 48.93 48.74 48.60 48.40 48.65 48.74 48.76 49.10 48.94 48.61 48.41 48.10 48.03 47.76 47.44 46.93 46.39 46.00 45.77 45.75 45.98 46.03 45.99 45.67 45.25 44.95 45.05 45.79 45.87 45.74 45.53 45.34 44.82 44.39 43.97 43.75 43.13 42.47 41.98 41.86 41.86 41.74 41.54 41.50 41.20
52.15 52.08 52.00 52.08 52.09 51.89 51.76 51.28 51.00 50.80 50.66 50.25 49.77 49.43 49.29 49.28 49.00 48.66 48.37 48.45 47.98 47.96 48.19 48.47 48.52 48.46 48.40 48.33 48.57 48.66 48.74 48.55 48.35 47.95 47.42 47.01 46.76 46.59 46.36 45.83 45.48 45.25 45.15 45.17 45.43 45.24 45.02 44.63 44.15 43.73 43.68 44.10 44.56 44.65 44.66 44.58 44.24 43.90 43.47 43.26 42.60 42.02 41.70 41.66 41.78 41.86 41.82 41.66 41.21
51.88 51.67 51.67 51.74 51.68 51.28 50.94 50.52 50.24 50.17 50.04 49.69 49.34 48.94 48.80 48.79 48.24 48.02 47.85 47.95 47.70 47.65 47.80 48.06 47.92 48.06 48.14 48.36 48.39 48.36 48.26 48.14 47.79 47.26 46.64 46.16 45.95 45.78 45.51 45.20 45.08 44.87 44.74 44.62 44.50 44.18 43.73 43.56 43.43 43.30 43.21 43.03 43.28 43.45 43.67 43.72 43.67 43.51 43.30 42.97 42.23 41.70 41.58 41.86 42.02 41.94 41.86 41.58 41.25
51.48 51.40 51.40 51.48 51.00 50.52 50.24 49.89 49.62 49.54 49.46 49.18 48.98 48.71 48.37 48.10 47.60 47.52 47.55 47.72 47.57 47.55 47.59 47.55 47.52 47.61 47.89 48.25 48.15 48.04 47.91 47.57 47.22 46.63 46.16 45.69 45.57 45.22 44.92 44.52 44.26 44.00 43.70 43.26 43.10 42.93 42.80 42.76 42.66 42.49 42.18 41.79 41.74 41.82 42.02 42.26 42.55 42.77 42.78 42.65 42.25 41.86 41.70 41.98 42.14 42.07 41.94 41.72 41.39
51.00 51.07 51.00 50.80 50.39 50.04 49.69 49.60 49.39 49.17 48.95 48.66 48.48 48.20 47.85 47.57 47.60 47.51 47.33 47.29 47.51 47.54 47.45 47.36 47.46 47.69 47.82 47.55 47.56 47.50 47.19 46.75 46.24 45.80 45.30 44.95 44.70 44.33 43.93 43.42 43.09 42.68 42.39 41.98 41.80 41.67 41.62 41.61 41.69 41.24 40.72 40.29 40.13 40.10 40.16 40.35 40.63 40.94 41.31 41.75 41.97 41.94 41.99 42.01 42.22 42.22 42.18 41.96 41.53
50.59 50.52 50.45 50.18 49.90 49.62 49.46 49.30 49.09 48.80 48.51 48.18 48.05 47.89 47.58 47.52 47.61 47.19 46.78 46.78 47.38 47.51 47.31 47.20 47.29 47.29 47.20 46.66 46.63 46.41 45.98 45.55 45.07 44.71 44.31 43.94 43.60 43.22 42.64 42.18 41.77 41.44 41.07 40.81 40.51 40.33 40.30 40.39 40.68 40.47 40.06 39.64 39.38 39.09 39.02 38.88 38.94 39.10 39.40 39.97 40.58 41.20 41.60 41.53 41.98 42.19 42.08 41.72 41.28
50.18 50.11 49.98 49.77 49.49 49.26 49.16 48.98 48.70 48.35 48.02 47.75 47.68 47.64 47.62 47.55 47.51 47.24 46.87 46.59 47.21 47.13 46.85 46.65 46.63 46.53 46.37 45.89 45.60 45.10 44.56 44.39 44.04 43.72 43.35 43.01 42.73 42.19 41.52 41.07 40.67 40.39 40.10 39.92 39.73 39.61 39.50 39.49 39.91 40.10 39.96 39.60 39.31 39.07 38.74 38.64 38.53 38.56 38.59 38.75 39.20 39.83 40.35 40.56 41.04 41.34 41.51 41.51 41.04
49.64 49.64 49.43 49.22 49.19 49.09 48.77 48.31 48.11 47.92 47.66 47.46 47.48 47.48 47.47 47.42 47.33 47.15 47.02 46.67 46.56 46.40 46.13 45.65 45.54 45.49 45.10 44.63 44.50 43.92 43.29 43.55 43.33 43.09 42.72 42.39 42.07 41.58 40.97 40.61 40.37 40.28 39.95 39.69 39.63 39.44 39.29 39.24 39.45 39.61 39.45 39.19 39.03 39.00 38.80 38.52 38.24 38.22 38.31 38.50 38.44 38.60 38.86 39.09 39.45 39.81 40.17 40.42 40.38
49.37 49.23 49.15 48.99 49.02 48.77 48.44 47.98 47.72 47.60 47.47 47.44 47.43 47.37 47.19 47.15 46.84 46.49 46.25 46.03 45.79 45.60 45.33 44.76 44.45 44.25 44.09 43.88 43.75 43.36 43.12 42.99 42.88 42.60 42.31 42.11 41.74 41.33 41.01 40.65 40.37 40.24 40.03 39.69 39.55 39.32 39.14 38.96 39.10 38.93 38.72 38.66 38.59 38.35 38.27 38.09 37.75 37.83 37.89 37.87 37.73 37.81 37.91 38.13 38.26 38.49 38.71 38.96 39.10
49.22 49.14 49.11 49.01 48.89 48.51 48.25 47.88 47.67 47.45 47.36 47.35 47.24 47.19 46.99 46.71 46.05 45.76 45.44 45.23 45.14 44.88 44.51 44.05 43.83 43.62 43.40 43.25 43.06 43.03 42.98 42.52 42.54 42.22 41.90 41.78 41.45 41.17 40.93 40.69 40.40 40.15 39.85 39.52 39.18 38.95 38.76 38.61 38.41 38.19 38.12 38.03 37.75 37.63 37.45 37.05 37.07 37.15 37.18 37.34 37.31 37.40 37.54 37.75 37.81 37.84 37.91 37.99 38.23
49.06 49.16 49.05 48.87 48.55 48.25 47.88 47.78 47.55 47.44 47.35 47.28 47.13 46.82 46.33 45.91 45.42 45.26 45.19 45.04 44.70 44.29 43.99 43.72 43.67 43.37 43.14 42.90 42.66 42.51 42.39 42.18 42.27 42.04 41.68 41.49 41.13 40.93 40.77 40.57 40.40 40.14 39.75 39.51 39.04 38.58 38.24 38.14 37.78 37.58 37.39 36.88 36.65 36.56 36.55 36.33 36.31 36.43 36.66 36.81 37.00 37.17 37.19 37.43 37.51 37.52 37.55 37.69 37.74
49.15 49.09 48.91 48.60 48.22 47.63 47.13 47.27 47.40 47.30 47.13 46.92 46.72 46.15 45.61 45.15 44.90 44.86 44.78 44.57 44.04 43.78 43.55 43.52 43.50 43.18 42.73 42.33 42.10 42.00 41.85 41.74 41.75 41.51 41.36 41.13 40.81 40.69 40.53 40.41 40.12 39.78 39.45 39.14 39.08 38.76 38.34 37.92 37.29 36.78 36.40 35.97 35.87 35.78 35.80 35.96 35.78 35.79 36.03 36.26 36.40 36.61 36.66 36.92 37.00 37.05 37.10 37.13 37.38
49.05 48.78 48.47 48.19 47.91 47.55 47.26 47.22 47.06 46.84 46.50 46.12 45.68 45.24 44.75 44.43 44.46 44.29 44.08 43.94 43.66 43.29 43.03 42.97 42.77 42.46 42.05 41.64 41.56 41.51 41.41 41.07 40.88 40.69 40.61 40.65 40.53 40.37 40.14 40.02 39.70 39.50 39.48 39.83 39.55 38.82 38.00 37.17 36.63 36.02 35.56 35.34 35.15 35.10 35.18 35.43 35.35 35.28 35.21 35.45 35.74 35.99 36.06 36.38 36.47 36.47 36.48 36.38 36.74
48.73 48.24 47.82 47.57 47.37 47.17 46.99 46.71 46.26 45.89 45.53 45.04 44.58 44.00 43.68 43.54 43.56 43.52 43.31 43.11 42.81 42.49 42.12 41.82 42.02 41.95 41.73 41.30 41.22 41.27 41.14 40.83 40.49 40.25 40.06 40.06 40.06 39.94 39.70 39.47 39.23 39.51 39.66 39.38 38.04 36.89 35.96 35.59 35.51 35.29 34.92 34.81 34.71 34.69 34.66 34.75 34.77 34.73 34.75 34.70 34.96 35.17 35.32 35.66 35.91 36.05 36.13 35.99 36.26
48.22 47.71 47.24 47.11 46.77 46.39 45.96 45.56 45.00 44.46 44.04 43.56 43.20 42.81 42.55 42.47 42.42 42.42 42.20 41.79 41.60 41.48 41.40 41.31 41.47 41.46 41.28 41.12 41.04 40.97 40.78 40.58 40.39 40.09 39.78 39.59 39.43 39.31 39.12 38.96 38.93 39.39 39.42 38.18 36.86 35.91 35.45 35.10 34.61 34.18 34.02 34.56 34.47 34.40 34.24 34.22 34.30 34.38 34.46 34.46 34.48 34.57 34.67 34.67 35.00 35.38 35.78 36.01 36.10
47.64 47.15 46.86 46.62 46.05 45.46 44.88 44.31 43.49 42.88 42.28 41.96 41.83 41.65 41.55 41.46 41.34 41.12 40.77 40.62 40.70 40.90 41.08 41.13 41.20 40.88 40.49 40.87 40.64 40.38 40.26 40.12 40.06 39.88 39.57 39.23 38.97 38.74 38.54 38.42 38.58 38.85 38.49 37.35 36.10 35.42 34.80 34.33 33.87 33.41 33.51 34.13 34.32 34.35 34.15 34.06 34.28 34.39 34.42 34.52 34.56 34.63 34.63 34.42 34.52 34.74 35.06 35.61 35.90
46.99 46.63 46.30 45.89 45.07 44.42 43.80 43.23 42.41 41.73 41.12 40.90 40.85 40.88 40.83 40.53 40.21 40.02 39.97 40.18 40.41 40.58 40.57 40.45 40.47 40.40 40.33 40.27 40.03 39.98 39.95 39.82 39.69 39.51 39.30 39.04 38.73 38.35 38.09 37.97 38.24 38.22 37.55 36.06 35.02 34.18 33.34 32.95 32.86 32.95 33.02 33.10 34.10 34.45 34.46 34.41 34.42 34.37 34.48 34.59 34.62 34.65 34.56 34.53 34.56 34.53 34.69 34.99 35.30
46.46 46.09 45.56 44.73 43.90 43.03 42.44 41.93 41.24 40.70 40.36 40.15 40.25 40.16 39.93 39.75 39.65 39.64 39.86 39.97 40.12 39.96 39.69 39.62 39.71 39.93 40.00 39.72 39.56 39.59 39.47 39.34 39.29 39.15 38.82 38.50 38.12 37.86 37.67 37.55 37.54 37.16 36.01 34.15 33.52 32.91 32.36 32.21 32.44 32.62 32.86 33.00 33.58 33.88 33.91 33.81 33.87 34.01 34.19 34.41 34.59 34.68 34.80 34.91 34.90 34.90 34.80 34.84 35.03
45.81 45.16 44.50 43.58 42.49 41.70 41.05 40.68 40.29 40.02 39.91 40.00 39.78 39.58 39.30 39.21 39.26 39.37 39.53 39.65 39.65 39.49 39.33 39.37 39.37 39.28 39.21 39.10 39.04 38.90 38.81 38.72 38.76 38.56 38.11 37.67 37.26 37.11 37.00 36.85 37.31 37.21 35.70 32.52 32.45 32.15 31.92 31.85 31.99 32.08 32.08 32.04 32.22 32.62 32.92 32.98 33.12 33.26 33.48 33.78 34.24 34.54 34.80 34.90 35.01 35.11 35.26 35.33 35.33
44.74 43.84 42.91 41.76 40.99 40.39 40.05 39.84 39.74 39.77 39.92 39.81 39.50 39.16 38.87 38.67 38.88 39.18 39.32 39.55 39.51 39.24 39.07 39.30 39.11 38.87 38.81 38.73 38.47 38.31 38.16 38.17 38.15 37.86 37.59 37.11 36.41 36.42 36.70 36.90 37.15 36.64 34.80 31.48 31.88 31.85 31.46 31.24 31.09 31.07 31.01 30.89 30.92 31.48 31.92 32.15 32.31 32.56 32.83 33.23 33.71 34.15 34.51 34.61 34.93 35.08 35.29 35.43 35.25
43.21 42.15 41.05 39.90 39.43 39.35 39.37 39.37 39.55 39.71 39.78 39.61 39.36 38.99 38.78 38.79 38.98 39.30 39.55 39.58 39.49 39.24 39.03 38.93 38.59 38.31 38.15 38.05 37.91 37.78 37.65 37.58 37.38 37.14 36.97 36.78 36.64 36.64 36.67 36.60 36.98 35.64 33.07 30.94 31.21 31.00 30.55 30.37 30.29 30.30 30.24 30.18 30.40 30.93 31.60 31.67 32.01 32.40 32.72 33.21 33.64 34.02 34.35 34.68 34.67 34.86 35.01 35.04 34.81
41.73 40.52 39.51 38.61 38.46 38.58 38.77 38.98 39.36 39.59 39.63 39.43 39.32 39.09 38.91 38.91 39.09 39.19 39.32 39.44 39.41 39.18 38.86 38.51 38.15 37.81 37.58 37.35 37.21 37.17 37.12 36.98 36.78 36.53 36.41 36.56 36.64 36.60 36.42 36.13 36.93 34.71 31.41 30.74 30.62 30.21 29.87 29.78 29.90 29.93 29.93 29.80 30.22 30.71 31.34 31.63 31.93 32.35 32.77 33.16 33.74 34.15 34.48 34.73 34.30 34.30 34.43 34.61 34.63
40.61 39.43 38.37 37.74 37.80 37.93 38.31 38.68 38.94 39.14 39.22 39.07 39.00 38.89 38.93 38.85 38.69 38.68 38.83 39.00 39.18 39.11 38.80 38.51 38.08 37.79 37.54 37.22 37.04 36.74 36.63 36.41 36.60 36.78 36.78 36.89 36.78 36.49 36.12 35.94 36.88 34.23 30.67 30.53 30.31 29.88 29.68 29.79 29.91 29.86 29.79 29.53 30.05 30.66 31.21 31.51 31.82 32.23 32.65 32.93 33.55 33.97 34.39 34.73 34.85 34.85 34.85 34.88 34.79
39.48 38.31 37.51 37.44 37.44 37.74 38.01 38.33 38.41 38.54 38.58 38.43 38.35 38.62 38.73 38.58 38.60 38.68 38.72 38.53 38.58 38.66 38.65 38.44 38.26 37.87 37.55 37.30 37.21 36.88 36.53 36.39 36.66 36.70 36.78 36.82 36.56 36.15 35.74 35.64 36.27 34.11 30.96 30.55 30.31 30.02 29.88 30.11 30.11 30.02 29.94 29.71 30.30 30.80 31.18 31.43 31.61 31.96 32.36 32.72 33.15 33.62 34.13 34.56 34.83 35.03 34.93 34.88 34.69
38.55 37.86 37.54 37.62 37.59 37.67 37.82 37.90 37.86 37.86 37.92 37.79 37.95 38.19 38.43 38.48 38.81 39.02 38.73 38.12 38.06 38.09 38.05 37.92 37.79 37.44 37.16 36.95 36.95 36.63 36.38 36.52 36.47 36.53 36.56 36.44 36.23 35.97 35.61 35.45 35.73 34.60 32.98 31.72 31.10 30.66 30.40 30.47 30.32 30.08 30.02 30.10 30.46 30.72 30.95 31.13 31.36 31.78 32.12 32.43 32.78 33.32 33.81 34.24 34.46 34.56 34.49 34.50 34.52
38.12 37.96 37.80 37.87 37.61 37.59 37.59 37.63 37.50 37.50 37.45 37.68 37.85 38.05 38.19 38.48 38.80 38.86 38.62 37.95 37.87 37.55 37.25 37.22 37.02 36.77 36.63 36.53 36.51 36.45 36.48 36.52 36.34 36.20 36.04 35.90 35.83 35.59 35.36 35.27 35.30 34.59 33.67 33.27 32.57 31.78 31.11 30.75 30.38 30.14 29.96 30.03 30.10 30.30 30.41 30.69 31.04 31.49 31.86 32.07 32.34 32.82 33.31 33.56 33.81 33.91 34.04 34.04 33.83
38.27 38.11 38.03 37.87 37.47 37.29 37.32 37.46 37.52 37.57 37.61 37.89 37.93 38.14 38.25 38.36 38.29 38.26 38.05 37.29 37.26 37.02 36.75 36.66 36.56 36.53 36.53 36.68 36.55 36.60 36.64 36.67 36.27 36.04 35.84 35.70 35.62 35.26 35.03 34.72 34.77 34.27 33.70 33.50 33.22 32.37 31.34 30.66 30.19 29.82 29.54 29.51 29.60 29.79 29.97 30.28 30.57 30.77 30.98 31.16 31.45 31.86 32.19 32.30 32.75 32.93 32.98 33.15 32.32
38.23 37.94 37.79 37.52 37.33 37.33 37.40 37.52 37.70 37.85 37.97 38.00 37.98 37.87 37.86 37.83 37.67 37.75 37.70 37.23 37.30 36.98 36.60 36.40 36.40 36.56 36.65 36.37 36.27 36.24 36.34 36.49 36.23 35.97 35.75 35.68 35.40 34.82 34.22 34.09 34.10 33.97 33.66 33.37 33.25 32.37 31.19 30.35 29.84 29.42 29.13 28.96 29.26 29.47 29.62 29.75 29.70 29.62 29.60 29.75 30.06 30.45 30.69 30.80 31.23 31.40 31.42 31.77 31.36
38.49 38.26 38.11 38.04 38.01 37.94 37.93 37.70 37.78 37.90 38.00 37.87 37.45 37.35 37.28 37.22 37.23 37.46 37.68 37.46 37.36 37.14 36.77 36.50 36.51 36.63 36.44 35.80 35.77 35.84 35.87 36.01 36.16 35.97 35.74 35.45 35.09 34.27 33.58 33.53 33.84 33.84 33.72 33.48 33.42 32.34 30.94 29.91 29.49 29.04 28.94 28.98 29.21 29.34 29.21 28.92 28.53 28.26 28.13 28.13 28.53 28.80 29.06 29.59 29.94 30.10 30.06 30.33 30.57
39.03 38.73 38.55 38.48 38.56 38.33 38.03 37.61 37.58 37.72 37.76 37.54 37.19 36.92 36.91 36.87 37.04 37.38 37.55 37.42 37.28 37.11 36.88 36.54 36.60 36.61 36.30 35.54 35.55 35.50 35.41 35.25 35.42 35.61 35.49 34.92 34.72 34.32 33.81 33.81 33.96 34.01 34.04 33.93 33.53 32.30 30.99 29.86 29.46 29.01 28.77 28.86 28.93 28.88 28.55 28.00 27.43 27.08 26.99 27.05 27.43 27.67 27.78 28.10 28.58 28.80 29.03 29.32 29.53
MSLP
1016.58 1016.54 1016.62 1016.74 1016.82 1016.82 1016.70 1016.58 1016.58 1016.58 1016.54 1016.46 1016.38 1016.34 1016.34 1016.34 1016.34 1016.26 1016.26 1016.26 1016.22 1016.14 1016.10 1016.10 1016.06 1015.98 1015.94 1015.90 1015.82 1015.78 1015.70 1015.70 1015.58 1015.54 1015.46 1015.42 1015.26 1015.22 1015.18 1015.22 1015.22 1015.26 1015.26 1015.22 1015.26 1015.26 1015.30 1015.30 1015.26 1015.22 1015.18 1015.18 1015.18 1015.18 1015.22 1015.26 1015.26 1015.26 1015.26 1015.26 1015.26 1015.26 1015.30 1015.38 1015.42 1015.50 1015.58 1015.70 1015.82
1016.50 1016.54 1016.62 1016.70 1016.70 1016.66 1016.54 1016.50 1016.50 1016.46 1016.46 1016.38 1016.38 1016.38 1016.38 1016.38 1016.34 1016.26 1016.22 1016.18 1016.18 1016.14 1016.10 1016.06 1015.98 1015.94 1015.86 1015.82 1015.78 1015.74 1015.70 1015.62 1015.54 1015.50 1015.42 1015.34 1015.26 1015.18 1015.10 1015.10 1015.10 1015.22 1015.26 1015.38 1015.38 1015.38 1015.34 1015.26 1015.22 1015.14 1015.10 1015.10 1015.18 1015.18 1015.14 1015.18 1015.26 1015.26 1015.30 1015.38 1015.42 1015.50 1015.54 1015.54 1015.58 1015.70 1015.82 1015.94 1016.06
1016.62 1016.62 1016.62 1016.58 1016.54 1016.46 1016.42 1016.42 1016.42 1016.38 1016.38 1016.38 1016.38 1016.38 1016.38 1016.34 1016.34 1016.26 1016.22 1016.14 1016.10 1016.10 1016.02 1015.98 1015.90 1015.86 1015.82 1015.78 1015.74 1015.74 1015.70 1015.58 1015.54 1015.46 1015.42 1015.30 1015.26 1015.14 1015.10 1015.02 1014.98 1015.10 1015.26 1015.38 1015.38 1015.38 1015.34 1015.26 1015.26 1015.18 1015.18 1015.18 1015.18 1015.14 1015.10 1015.10 1015.26 1015.34 1015.42 1015.46 1015.54 1015.66 1015.70 1015.70 1015.74 1015.86 1015.98 1016.10 1016.22
1016.58 1016.62 1016.58 1016.54 1016.54 1016.54 1016.54 1016.54 1016.46 1016.38 1016.38 1016.38 1016.38 1016.38 1016.38 1016.34 1016.26 1016.22 1016.18 1016.10 1016.06 1016.02 1015.98 1015.94 1015.90 1015.86 1015.82 1015.82 1015.74 1015.70 1015.66 1015.58 1015.54 1015.50 1015.42 1015.30 1015.26 1015.18 1015.10 1015.06 1015.06 1015.10 1015.22 1015.26 1015.30 1015.26 1015.26 1015.26 1015.26 1015.26 1015.26 1015.22 1015.22 1015.14 1015.10 1015.10 1015.22 1015.34 1015.42 1015.54 1015.62 1015.70 1015.70 1015.74 1015.86 1015.98 1016.10 1016.18 1016.30
1016.50 1016.54 1016.58 1016.58 1016.58 1016.58 1016.54 1016.54 1016.50 1016.46 1016.42 1016.42 1016.42 1016.38 1016.34 1016.26 1016.22 1016.14 1016.10 1016.06 1016.06 1015.98 1015.98 1015.98 1015.94 1015.90 1015.86 1015.82 1015.74 1015.70 1015.62 1015.58 1015.58 1015.50 1015.38 1015.26 1015.18 1015.14 1015.10 1015.10 1015.14 1015.18 1015.26 1015.26 1015.26 1015.26 1015.26 1015.26 1015.26 1015.26 1015.26 1015.18 1015.14 1015.10 1015.10 1015.10 1015.18 1015.30 1015.42 1015.54 1015.62 1015.70 1015.74 1015.86 1015.98 1016.10 1016.26 1016.38 1016.54
1016.38 1016.46 1016.54 1016.54 1016.54 1016.50 1016.46 1016.46 1016.46 1016.42 1016.42 1016.42 1016.38 1016.30 1016.26 1016.22 1016.18 1016.10 1016.10 1016.06 1016.02 1015.98 1015.98 1015.94 1015.94 1015.90 1015.86 1015.78 1015.70 1015.62 1015.54 1015.46 1015.46 1015.42 1015.34 1015.18 1015.10 1015.06 1015.10 1015.10 1015.14 1015.18 1015.22 1015.22 1015.26 1015.26 1015.26 1015.26 1015.26 1015.22 1015.18 1015.10 1015.10 1015.06 1015.06 1015.10 1015.18 1015.30 1015.42 1015.50 1015.58 1015.70 1015.82 1015.98 1016.18 1016.38 1016.50 1016.58 1016.70
1016.38 1016.42 1016.38 1016.38 1016.34 1016.30 1016.30 1016.34 1016.38 1016.38 1016.38 1016.34 1016.30 1016.26 1016.22 1016.14 1016.10 1016.10 1016.10 1016.06 1015.98 1015.90 1015.86 1015.86 1015.82 1015.82 1015.74 1015.70 1015.62 1015.54 1015.42 1015.38 1015.34 1015.30 1015.26 1015.18 1015.10 1015.10 1015.06 1015.10 1015.10 1015.14 1015.14 1015.18 1015.18 1015.22 1015.22 1015.18 1015.14 1015.10 1015.10 1015.10 1015.06 1014.98 1014.90 1014.98 1015.10 1015.26 1015.38 1015.46 1015.62 1015.82 1015.98 1016.14 1016.34 1016.54 1016.62 1016.70 1016.74
1016.38 1016.38 1016.34 1016.26 1016.26 1016.26 1016.22 1016.22 1016.26 1016.26 1016.26 1016.26 1016.22 1016.18 1016.14 1016.10 1016.02 1016.02 1016.02 1015.98 1015.90 1015.86 1015.82 1015.78 1015.74 1015.70 1015.66 1015.58 1015.50 1015.42 1015.34 1015.26 1015.18 1015.18 1015.22 1015.22 1015.14 1015.10 1015.10 1015.10 1015.10 1015.10 1015.14 1015.14 1015.14 1015.14 1015.10 1015.10 1015.10 1015.10 1015.10 1015.14 1015.10 1015.02 1014.98 1014.98 1014.98 1015.10 1015.18 1015.34 1015.54 1015.78 1015.98 1016.14 1016.30 1016.46 1016.58 1016.66 1016.70
1016.38 1016.30 1016.26 1016.26 1016.26 1016.22 1016.18 1016.14 1016.18 1016.18 1016.18 1016.18 1016.10 1016.10 1016.06 1016.02 1015.98 1015.98 1015.98 1015.90 1015.90 1015.86 1015.82 1015.78 1015.70 1015.58 1015.54 1015.50 1015.42 1015.30 1015.26 1015.14 1015.10 1015.10 1015.10 1015.14 1015.18 1015.14 1015.10 1015.10 1015.14 1015.14 1015.18 1015.26 1015.26 1015.26 1015.22 1015.18 1015.14 1015.18 1015.26 1015.42 1015.42 1015.42 1015.34 1015.18 1015.02 1015.02 1015.14 1015.26 1015.50 1015.74 1015.98 1016.10 1016.22 1016.30 1016.38 1016.46 1016.50
1016.30 1016.26 1016.22 1016.18 1016.14 1016.10 1016.10 1016.10 1016.10 1016.10 1016.06 1016.06 1015.98 1015.98 1015.94 1015.94 1015.94 1015.94 1015.94 1015.94 1015.98 1015.94 1015.82 1015.74 1015.66 1015.54 1015.46 1015.42 1015.26 1015.14 1015.10 1015.06 1015.02 1015.02 1015.06 1015.10 1015.18 1015.22 1015.22 1015.22 1015.26 1015.34 1015.42 1015.54 1015.66 1015.62 1015.54 1015.46 1015.42 1015.42 1015.54 1015.74 1015.86 1015.82 1015.70 1015.50 1015.26 1015.14 1015.14 1015.30 1015.46 1015.66 1015.82 1015.98 1016.10 1016.14 1016.22 1016.26 1016.26
1016.22 1016.18 1016.14 1016.10 1016.10 1016.06 1016.06 1016.02 1015.98 1015.98 1015.94 1015.94 1015.86 1015.86 1015.86 1015.94 1015.94 1015.98 1015.98 1016.02 1016.02 1015.98 1015.82 1015.74 1015.66 1015.54 1015.42 1015.30 1015.14 1015.06 1015.02 1014.98 1014.98 1015.02 1015.06 1015.10 1015.22 1015.30 1015.38 1015.42 1015.54 1015.70 1015.82 1015.90 1016.02 1015.98 1015.86 1015.74 1015.70 1015.70 1015.70 1015.82 1015.98 1015.98 1015.90 1015.70 1015.46 1015.26 1015.22 1015.22 1015.26 1015.38 1015.54 1015.70 1015.82 1015.86 1015.90 1015.90 1015.98
1016.10 1016.10 1016.10 1016.10 1016.02 1015.98 1015.98 1015.98 1015.94 1015.90 1015.90 1015.86 1015.86 1015.90 1015.98 1015.98 1016.06 1016.10 1016.14 1016.14 1016.10 1015.98 1015.86 1015.74 1015.66 1015.50 1015.38 1015.26 1015.10 1015.06 1014.98 1015.02 1015.02 1015.10 1015.14 1015.22 1015.38 1015.54 1015.66 1015.78 1015.86 1015.98 1016.06 1016.10 1016.22 1016.18 1016.10 1016.06 1016.02 1015.98 1015.94 1015.98 1016.10 1016.14 1016.02 1015.82 1015.58 1015.42 1015.26 1015.14 1015.10 1015.14 1015.26 1015.34 1015.42 1015.50 1015.50 1015.54 1015.58
1016.10 1016.06 1016.02 1015.98 1015.98 1015.94 1015.94 1015.90 1015.94 1015.90 1015.90 1015.90 1015.98 1016.02 1016.10 1016.14 1016.22 1016.26 1016.26 1016.26 1016.18 1016.06 1015.94 1015.82 1015.70 1015.54 1015.42 1015.26 1015.14 1015.10 1015.10 1015.10 1015.14 1015.22 1015.30 1015.46 1015.62 1015.78 1015.90 1016.02 1016.14 1016.22 1016.26 1016.26 1016.34 1016.38 1016.30 1016.26 1016.26 1016.26 1016.22 1016.22 1016.26 1016.18 1016.10 1015.94 1015.70 1015.50 1015.26 1015.14 1015.06 1015.02 1015.02 1015.10 1015.10 1015.14 1015.18 1015.14 1015.22
1016.06 1016.02 1015.98 1015.90 1015.86 1015.86 1015.94 1015.98 1015.98 1015.98 1016.02 1016.06 1016.14 1016.26 1016.34 1016.38 1016.38 1016.42 1016.42 1016.38 1016.30 1016.18 1016.06 1015.94 1015.82 1015.66 1015.54 1015.38 1015.30 1015.26 1015.26 1015.26 1015.30 1015.42 1015.54 1015.70 1015.90 1016.06 1016.18 1016.26 1016.38 1016.42 1016.46 1016.50 1016.54 1016.54 1016.54 1016.46 1016.42 1016.38 1016.38 1016.30 1016.26 1016.18 1016.10 1015.98 1015.82 1015.62 1015.42 1015.26 1015.10 1014.98 1014.90 1014.86 1014.86 1014.90 1014.94 1014.98 1014.98
1015.98 1015.98 1015.90 1015.82 1015.86 1015.90 1015.94 1016.02 1016.10 1016.14 1016.18 1016.26 1016.38 1016.42 1016.50 1016.54 1016.54 1016.54 1016.54 1016.54 1016.42 1016.34 1016.26 1016.10 1015.98 1015.82 1015.74 1015.62 1015.58 1015.54 1015.54 1015.54 1015.66 1015.78 1015.86 1015.98 1016.14 1016.30 1016.42 1016.54 1016.58 1016.66 1016.70 1016.70 1016.70 1016.70 1016.66 1016.62 1016.58 1016.58 1016.54 1016.50 1016.46 1016.38 1016.30 1016.22 1016.10 1015.90 1015.70 1015.46 1015.26 1015.10 1014.94 1014.78 1014.70 1014.70 1014.74 1014.82 1014.86
1015.98 1015.90 1015.82 1015.82 1015.86 1015.94 1015.98 1016.10 1016.22 1016.30 1016.38 1016.42 1016.50 1016.54 1016.58 1016.58 1016.58 1016.62 1016.66 1016.58 1016.54 1016.46 1016.38 1016.30 1016.18 1016.06 1015.98 1015.94 1015.94 1015.94 1015.94 1015.94 1016.06 1016.14 1016.22 1016.30 1016.38 1016.54 1016.66 1016.74 1016.78 1016.82 1016.82 1016.82 1016.82 1016.82 1016.82 1016.86 1016.90 1016.86 1016.82 1016.82 1016.78 1016.70 1016.66 1016.54 1016.46 1016.34 1016.10 1015.90 1015.70 1015.50 1015.26 1015.06 1014.90 1014.74 1014.70 1014.70 1014.74
1015.90 1015.86 1015.82 1015.86 1015.94 1015.98 1016.10 1016.26 1016.38 1016.42 1016.50 1016.54 1016.54 1016.58 1016.62 1016.66 1016.66 1016.70 1016.66 1016.54 1016.50 1016.50 1016.50 1016.42 1016.38 1016.26 1016.22 1016.22 1016.30 1016.34 1016.38 1016.38 1016.42 1016.50 1016.54 1016.62 1016.70 1016.78 1016.82 1016.90 1016.94 1016.98 1016.98 1016.98 1016.98 1017.02 1017.06 1017.10 1017.10 1017.14 1017.10 1017.06 1016.98 1016.94 1016.86 1016.78 1016.70 1016.58 1016.46 1016.30 1016.14 1015.98 1015.78 1015.54 1015.30 1015.02 1014.82 1014.70 1014.66
1015.86 1015.82 1015.86 1015.94 1016.02 1016.10 1016.22 1016.38 1016.42 1016.50 1016.54 1016.54 1016.54 1016.58 1016.66 1016.70 1016.66 1016.58 1016.54 1016.54 1016.54 1016.58 1016.58 1016.58 1016.54 1016.54 1016.54 1016.54 1016.70 1016.78 1016.82 1016.82 1016.82 1016.82 1016.86 1016.94 1016.98 1016.98 1016.98 1017.02 1017.06 1017.10 1017.10 1017.10 1017.10 1017.14 1017.14 1017.14 1017.14 1017.18 1017.14 1017.10 1017.02 1016.98 1016.90 1016.82 1016.70 1016.66 1016.54 1016.46 1016.38 1016.22 1016.02 1015.82 1015.58 1015.34 1015.10 1014.86 1014.74
1015.82 1015.86 1015.94 1015.98 1016.10 1016.22 1016.26 1016.38 1016.46 1016.50 1016.54 1016.54 1016.54 1016.58 1016.62 1016.62 1016.62 1016.54 1016.54 1016.58 1016.70 1016.82 1016.82 1016.82 1016.78 1016.82 1016.86 1016.98 1017.06 1017.10 1017.10 1017.10 1017.10 1017.10 1017.10 1017.14 1017.10 1017.10 1017.10 1017.10 1017.10 1017.10 1017.10 1017.10 1017.10 1017.10 1017.10 1017.10 1017.10 1017.10 1017.06 1017.02 1016.94 1016.86 1016.82 1016.74 1016.66 1016.62 1016.54 1016.50 1016.38 1016.26 1016.10 1015.94 1015.70 1015.54 1015.38 1015.22 1015.14
1015.82 1015.90 1015.98 1016.06 1016.18 1016.26 1016.34 1016.38 1016.46 1016.50 1016.54 1016.50 1016.54 1016.54 1016.54 1016.54 1016.58 1016.62 1016.70 1016.78 1016.98 1017.10 1017.10 1017.10 1017.06 1017.06 1017.10 1017.18 1017.22 1017.22 1017.22 1017.18 1017.18 1017.18 1017.18 1017.18 1017.14 1017.14 1017.10 1017.10 1017.10 1017.10 1017.10 1017.10 1017.10 1017.10 1017.10 1017.10 1017.10 1017.06 1016.98 1016.94 1016.86 1016.82 1016.70 1016.66 1016.62 1016.54 1016.54 1016.50 1016.38 1016.30 1016.18 1016.02 1015.82 1015.70 1015.54 1015.50 1015.46
1015.82 1015.94 1016.10 1016.18 1016.26 1016.30 1016.38 1016.46 1016.50 1016.54 1016.50 1016.42 1016.38 1016.38 1016.42 1016.50 1016.58 1016.70 1016.86 1017.02 1017.18 1017.26 1017.30 1017.26 1017.26 1017.22 1017.22 1017.22 1017.18 1017.14 1017.10 1017.14 1017.14 1017.14 1017.10 1017.14 1017.14 1017.18 1017.18 1017.18 1017.18 1017.18 1017.18 1017.18 1017.18 1017.18 1017.18 1017.18 1017.14 1017.10 1017.06 1016.98 1016.86 1016.78 1016.70 1016.58 1016.54 1016.50 1016.46 1016.42 1016.38 1016.30 1016.22 1016.10 1015.94 1015.78 1015.70 1015.58 1015.58
1015.86 1016.02 1016.22 1016.34 1016.38 1016.38 1016.42 1016.46 1016.50 1016.50 1016.46 1016.38 1016.26 1016.26 1016.38 1016.54 1016.66 1016.82 1016.98 1017.14 1017.26 1017.30 1017.30 1017.26 1017.22 1017.18 1017.18 1017.18 1017.10 1017.10 1017.06 1017.02 1017.02 1017.06 1017.06 1017.10 1017.10 1017.14 1017.18 1017.22 1017.22 1017.22 1017.18 1017.18 1017.22 1017.26 1017.26 1017.30 1017.30 1017.26 1017.14 1017.06 1016.94 1016.82 1016.74 1016.66 1016.54 1016.50 1016.42 1016.38 1016.30 1016.26 1016.18 1016.10 1016.02 1015.90 1015.78 1015.70 1015.70
1015.98 1016.18 1016.38 1016.46 1016.50 1016.50 1016.50 1016.50 1016.46 1016.42 1016.38 1016.34 1016.30 1016.34 1016.46 1016.66 1016.78 1016.94 1017.06 1017.14 1017.26 1017.26 1017.26 1017.22 1017.18 1017.18 1017.14 1017.14 1017.10 1017.06 1017.02 1016.98 1016.98 1016.98 1017.02 1017.06 1017.06 1017.10 1017.10 1017.10 1017.10 1017.10 1017.10 1017.18 1017.22 1017.26 1017.26 1017.30 1017.34 1017.30 1017.22 1017.10 1017.02 1016.90 1016.78 1016.70 1016.62 1016.54 1016.42 1016.34 1016.26 1016.22 1016.14 1016.10 1016.02 1015.98 1015.90 1015.82 1015.82
1016.14 1016.34 1016.50 1016.54 1016.54 1016.54 1016.50 1016.54 1016.50 1016.46 1016.42 1016.50 1016.54 1016.66 1016.78 1016.86 1016.98 1017.10 1017.18 1017.22 1017.26 1017.26 1017.30 1017.26 1017.22 1017.22 1017.26 1017.22 1017.10 1017.06 1016.98 1016.98 1016.98 1016.98 1016.98 1017.06 1017.06 1017.02 1016.98 1016.98 1016.94 1016.90 1016.90 1017.02 1017.18 1017.30 1017.38 1017.38 1017.34 1017.30 1017.22 1017.14 1017.06 1016.94 1016.82 1016.78 1016.70 1016.54 1016.38 1016.30 1016.22 1016.10 1016.10 1016.02 1015.98 1015.94 1015.90 1015.82 1015.78
1016.26 1016.46 1016.58 1016.62 1016.62 1016.54 1016.54 1016.58 1016.62 1016.66 1016.70 1016.82 1016.98 1017.06 1017.10 1017.22 1017.26 1017.26 1017.30 1017.30 1017.30 1017.34 1017.34 1017.30 1017.26 1017.26 1017.26 1017.26 1017.14 1017.06 1016.98 1016.98 1016.94 1016.94 1016.98 1016.98 1016.98 1016.98 1016.90 1016.86 1016.78 1016.78 1016.82 1016.98 1017.22 1017.38 1017.50 1017.54 1017.50 1017.42 1017.30 1017.22 1017.10 1016.98 1016.82 1016.74 1016.66 1016.54 1016.38 1016.22 1016.10 1016.02 1015.90 1015.82 1015.78 1015.74 1015.70 1015.70 1015.58
1016.38 1016.54 1016.58 1016.58 1016.58 1016.58 1016.62 1016.70 1016.82 1016.98 1017.10 1017.14 1017.26 1017.30 1017.34 1017.38 1017.42 1017.42 1017.38 1017.34 1017.34 1017.34 1017.34 1017.26 1017.26 1017.30 1017.30 1017.26 1017.10 1016.98 1016.98 1016.90 1016.82 1016.82 1016.82 1016.82 1016.82 1016.82 1016.82 1016.78 1016.70 1016.70 1016.78 1016.94 1017.18 1017.42 1017.50 1017.54 1017.58 1017.54 1017.46 1017.30 1017.10 1016.98 1016.82 1016.70 1016.54 1016.42 1016.30 1016.14 1016.02 1015.86 1015.74 1015.58 1015.50 1015.42 1015.38 1015.34 1015.26
1016.42 1016.50 1016.54 1016.62 1016.70 1016.78 1016.90 1016.98 1017.14 1017.26 1017.34 1017.42 1017.38 1017.38 1017.38 1017.42 1017.42 1017.42 1017.38 1017.34 1017.34 1017.34 1017.30 1017.26 1017.26 1017.26 1017.26 1017.14 1017.02 1016.94 1016.90 1016.82 1016.78 1016.74 1016.74 1016.74 1016.78 1016.82 1016.78 1016.70 1016.66 1016.58 1016.70 1016.90 1017.14 1017.34 1017.42 1017.54 1017.54 1017.58 1017.54 1017.38 1017.22 1017.02 1016.82 1016.66 1016.50 1016.34 1016.18 1016.06 1015.86 1015.70 1015.54 1015.38 1015.26 1015.10 1015.02 1014.94 1014.86
1016.46 1016.54 1016.66 1016.78 1016.90 1017.02 1017.14 1017.26 1017.34 1017.42 1017.50 1017.50 1017.46 1017.46 1017.42 1017.42 1017.42 1017.42 1017.38 1017.30 1017.30 1017.26 1017.26 1017.22 1017.22 1017.18 1017.10 1017.02 1016.98 1016.90 1016.82 1016.74 1016.70 1016.70 1016.70 1016.74 1016.74 1016.78 1016.74 1016.66 1016.54 1016.54 1016.58 1016.82 1017.06 1017.26 1017.38 1017.42 1017.50 1017.54 1017.54 1017.42 1017.26 1017.02 1016.82 1016.62 1016.42 1016.26 1016.02 1015.82 1015.62 1015.42 1015.26 1015.10 1014.94 1014.82 1014.70 1014.58 1014.50
1016.66 1016.78 1016.90 1016.98 1017.18 1017.38 1017.46 1017.50 1017.54 1017.58 1017.58 1017.58 1017.58 1017.54 1017.54 1017.54 1017.50 1017.42 1017.34 1017.26 1017.26 1017.22 1017.18 1017.14 1017.14 1017.10 1017.10 1016.98 1016.94 1016.82 1016.74 1016.66 1016.66 1016.66 1016.70 1016.70 1016.74 1016.74 1016.70 1016.58 1016.46 1016.38 1016.54 1016.86 1017.02 1017.18 1017.34 1017.42 1017.46 1017.50 1017.50 1017.46 1017.30 1017.10 1016.86 1016.62 1016.38 1016.14 1015.94 1015.66 1015.46 1015.26 1015.02 1014.82 1014.70 1014.54 1014.42 1014.30 1014.26
1016.78 1016.98 1017.14 1017.34 1017.50 1017.62 1017.70 1017.70 1017.70 1017.70 1017.70 1017.70 1017.66 1017.62 1017.58 1017.54 1017.50 1017.42 1017.30 1017.26 1017.22 1017.18 1017.18 1017.14 1017.10 1017.10 1017.02 1016.94 1016.90 1016.82 1016.70 1016.58 1016.62 1016.66 1016.70 1016.70 1016.74 1016.70 1016.66 1016.54 1016.38 1016.38 1016.62 1016.98 1017.10 1017.18 1017.30 1017.42 1017.46 1017.46 1017.50 1017.50 1017.38 1017.18 1016.98 1016.70 1016.42 1016.18 1015.90 1015.62 1015.42 1015.14 1014.94 1014.70 1014.54 1014.38 1014.26 1014.14 1014.06
1016.98 1017.26 1017.46 1017.62 1017.78 1017.86 1017.90 1017.90 1017.86 1017.86 1017.82 1017.78 1017.70 1017.70 1017.66 1017.58 1017.50 1017.42 1017.34 1017.26 1017.22 1017.18 1017.18 1017.14 1017.10 1017.02 1016.98 1016.90 1016.82 1016.74 1016.70 1016.62 1016.66 1016.70 1016.74 1016.78 1016.78 1016.70 1016.62 1016.54 1016.38 1016.46 1016.82 1017.18 1017.22 1017.26 1017.34 1017.42 1017.42 1017.42 1017.46 1017.46 1017.38 1017.22 1016.98 1016.74 1016.50 1016.22 1015.94 1015.66 1015.42 1015.14 1014.94 1014.70 1014.50 1014.34 1014.22 1014.10 1013.98
1017.26 1017.54 1017.70 1017.90 1017.98 1018.06 1018.10 1018.02 1017.98 1017.98 1017.90 1017.82 1017.78 1017.74 1017.70 1017.66 1017.58 1017.46 1017.38 1017.26 1017.26 1017.18 1017.10 1017.06 1017.02 1016.98 1016.90 1016.82 1016.82 1016.74 1016.70 1016.74 1016.74 1016.78 1016.82 1016.78 1016.74 1016.70 1016.66 1016.58 1016.42 1016.66 1017.02 1017.22 1017.26 1017.30 1017.42 1017.42 1017.42 1017.42 1017.42 1017.42 1017.34 1017.18 1016.94 1016.70 1016.42 1016.14 1015.86 1015.58 1015.30 1015.10 1014.82 1014.66 1014.38 1014.22 1014.10 1014.02 1013.98
1017.58 1017.78 1017.94 1018.10 1018.26 1018.26 1018.22 1018.14 1018.06 1017.98 1017.94 1017.86 1017.82 1017.78 1017.74 1017.70 1017.58 1017.50 1017.42 1017.26 1017.18 1017.10 1017.06 1016.98 1016.98 1016.90 1016.86 1016.82 1016.82 1016.82 1016.78 1016.82 1016.82 1016.82 1016.82 1016.82 1016.74 1016.70 1016.66 1016.66 1016.46 1016.74 1017.10 1017.22 1017.26 1017.30 1017.34 1017.38 1017.34 1017.34 1017.34 1017.34 1017.26 1017.02 1016.78 1016.54 1016.26 1015.98 1015.66 1015.34 1015.10 1014.86 1014.66 1014.46 1014.30 1014.14 1014.02 1013.98 1013.90
1017.82 1018.02 1018.22 1018.38 1018.46 1018.42 1018.34 1018.22 1018.10 1018.06 1017.98 1017.94 1017.86 1017.82 1017.82 1017.70 1017.54 1017.42 1017.26 1017.18 1017.10 1017.06 1017.02 1016.98 1016.98 1016.98 1016.90 1016.90 1016.86 1016.82 1016.82 1016.86 1016.86 1016.82 1016.78 1016.74 1016.70 1016.70 1016.70 1016.66 1016.50 1016.82 1017.22 1017.14 1017.22 1017.26 1017.26 1017.26 1017.26 1017.26 1017.26 1017.26 1017.10 1016.90 1016.58 1016.26 1016.02 1015.70 1015.42 1015.18 1014.98 1014.74 1014.54 1014.42 1014.26 1014.10 1013.98 1013.86 1013.86
1018.10 1018.34 1018.54 1018.66 1018.66 1018.54 1018.38 1018.26 1018.18 1018.14 1018.10 1018.02 1017.98 1017.86 1017.74 1017.58 1017.42 1017.26 1017.14 1017.10 1017.02 1017.02 1016.98 1016.98 1016.98 1016.98 1016.94 1016.90 1016.86 1016.86 1016.86 1016.86 1016.82 1016.78 1016.74 1016.70 1016.74 1016.74 1016.70 1016.66 1016.50 1016.82 1017.18 1017.14 1017.18 1017.18 1017.22 1017.18 1017.18 1017.18 1017.22 1017.14 1016.98 1016.70 1016.42 1016.10 1015.82 1015.54 1015.30 1015.10 1014.86 1014.70 1014.54 1014.38 1014.22 1014.06 1013.98 1013.94 1013.90
1018.50 1018.66 1018.74 1018.70 1018.62 1018.46 1018.34 1018.30 1018.26 1018.26 1018.18 1018.10 1017.98 1017.82 1017.62 1017.46 1017.30 1017.18 1017.10 1017.06 1017.06 1017.02 1016.98 1016.98 1016.98 1016.94 1016.86 1016.86 1016.82 1016.82 1016.82 1016.82 1016.78 1016.78 1016.74 1016.74 1016.74 1016.74 1016.70 1016.66 1016.54 1016.62 1016.82 1017.06 1017.10 1017.10 1017.10 1017.10 1017.10 1017.14 1017.10 1017.02 1016.82 1016.58 1016.34 1016.06 1015.78 1015.50 1015.26 1015.02 1014.82 1014.62 1014.46 1014.30 1014.22 1014.10 1014.02 1013.98 1013.98
1018.70 1018.74 1018.70 1018.58 1018.46 1018.38 1018.38 1018.38 1018.34 1018.26 1018.10 1017.98 1017.82 1017.66 1017.50 1017.38 1017.26 1017.14 1017.10 1017.10 1017.06 1017.02 1016.98 1016.98 1016.94 1016.86 1016.82 1016.82 1016.82 1016.78 1016.78 1016.78 1016.74 1016.74 1016.74 1016.74 1016.74 1016.70 1016.66 1016.62 1016.58 1016.54 1016.58 1016.82 1016.90 1016.98 1016.98 1017.02 1017.06 1017.10 1017.06 1016.98 1016.78 1016.54 1016.30 1016.02 1015.78 1015.50 1015.26 1015.06 1014.82 1014.70 1014.54 1014.42 1014.30 1014.22 1014.18 1014.14 1014.18
1018.66 1018.58 1018.50 1018.38 1018.38 1018.38 1018.38 1018.30 1018.22 1018.10 1017.98 1017.82 1017.70 1017.58 1017.46 1017.38 1017.26 1017.22 1017.18 1017.18 1017.10 1017.02 1016.94 1016.90 1016.86 1016.82 1016.82 1016.78 1016.74 1016.78 1016.78 1016.74 1016.70 1016.70 1016.70 1016.70 1016.70 1016.66 1016.62 1016.58 1016.54 1016.58 1016.62 1016.70 1016.82 1016.86 1016.94 1016.98 1017.02 1017.10 1017.10 1016.98 1016.82 1016.58 1016.34 1016.06 1015.82 1015.54 1015.38 1015.18 1015.02 1014.86 1014.74 1014.70 1014.58 1014.50 1014.42 1014.42 1014.50
1018.42 1018.38 1018.34 1018.30 1018.30 1018.30 1018.26 1018.14 1018.02 1017.98 1017.86 1017.74 1017.66 1017.58 1017.54 1017.42 1017.34 1017.26 1017.22 1017.18 1017.10 1016.98 1016.90 1016.82 1016.78 1016.78 1016.78 1016.74 1016.74 1016.74 1016.70 1016.66 1016.62 1016.66 1016.70 1016.66 1016.66 1016.70 1016.70 1016.66 1016.58 1016.54 1016.58 1016.66 1016.74 1016.82 1016.86 1016.90 1016.98 1017.10 1017.10 1017.06 1016.86 1016.70 1016.42 1016.14 1015.94 1015.74 1015.54 1015.42 1015.26 1015.10 1014.98 1014.90 1014.82 1014.74 1014.70 1014.66 1014.66
1018.30 1018.30 1018.30 1018.26 1018.26 1018.18 1018.10 1017.98 1017.94 1017.90 1017.86 1017.82 1017.74 1017.70 1017.58 1017.54 1017.42 1017.30 1017.26 1017.10 1017.06 1016.98 1016.86 1016.82 1016.78 1016.74 1016.74 1016.74 1016.70 1016.70 1016.62 1016.58 1016.58 1016.62 1016.66 1016.66 1016.66 1016.70 1016.74 1016.70 1016.58 1016.54 1016.50 1016.54 1016.58 1016.70 1016.78 1016.86 1016.94 1017.02 1017.06 1017.02 1016.90 1016.74 1016.54 1016.34 1016.10 1015.94 1015.78 1015.66 1015.46 1015.26 1015.10 1014.98 1014.90 1014.82 1014.78 1014.70 1014.62
1018.26 1018.26 1018.26 1018.18 1018.14 1018.10 1018.06 1017.98 1017.98 1017.98 1017.94 1017.90 1017.82 1017.74 1017.70 1017.58 1017.42 1017.26 1017.18 1017.06 1016.98 1016.90 1016.86 1016.82 1016.78 1016.74 1016.70 1016.70 1016.70 1016.66 1016.62 1016.62 1016.62 1016.62 1016.66 1016.66 1016.66 1016.70 1016.70 1016.58 1016.54 1016.38 1016.30 1016.30 1016.38 1016.54 1016.70 1016.74 1016.82 1016.94 1017.02 1017.02 1016.98 1016.82 1016.70 1016.46 1016.26 1016.06 1015.90 1015.74 1015.62 1015.42 1015.26 1015.10 1015.02 1014.98 1014.86 1014.78 1014.66
Wind_Speed
5 4 3 2 2 3 3 3 3 3 4 5 5 5 5 6 6 6 6 6 6 6 6 6 7 8 9 11 12 13 13 13 13 13 13 14 13 13 12 12 11 11 11 11 10 9 9 9 8 7 7 6 7 7 7 6 6 7 7 7 6 6 6 5 5 5 4 4 3
6 5 4 3 3 4 4 4 4 4 4 5 5 6 6 6 6 6 7 7 6 6 7 7 8 9 11 13 13 13 13 13 14 14 14 14 14 13 13 12 11 10 10 10 10 9 9 10 9 8 7 7 7 8 8 7 6 7 7 8 6 5 4 5 4 4 3 2 1
5 5 5 5 5 5 5 5 5 6 7 6 6 6 6 6 6 6 6 7 7 8 8 7 8 10 12 13 13 13 13 13 14 14 13 13 13 14 13 12 11 10 10 10 10 10 10 11 10 8 7 7 8 8 8 7 6 6 7 7 5 4 4 4 3 3 2 2 2
5 5 6 6 8 8 7 6 7 8 8 6 7 7 7 6 6 6 7 8 9 9 8 9 9 10 11 12 13 13 13 13 14 14 14 13 13 14 14 13 12 11 11 11 12 12 12 11 9 8 8 9 10 9 8 7 6 6 5 5 5 5 4 3 2 2 2 2 2
5 5 5 6 8 8 8 7 8 8 7 6 6 6 6 6 6 7 7 8 8 9 10 11 10 10 11 12 14 14 14 14 14 13 13 13 13 13 13 13 12 12 12 12 12 12 12 12 9 8 8 9 8 8 8 8 7 6 5 4 4 4 3 2 1 1 1 1 2
5 6 7 7 9 8 8 7 8 8 7 7 7 8 8 7 7 7 8 8 9 10 12 12 11 10 11 13 13 14 13 13 12 13 13 13 12 12 12 13 13 12 12 12 13 13 13 11 9 8 8 8 8 8 8 8 7 5 5 4 3 1 0 0 1 1 1 2 3
7 9 9 10 10 10 9 8 8 8 8 8 9 10 10 9 9 10 10 10 10 10 10 9 10 10 11 12 13 13 13 12 12 13 14 13 12 12 12 12 12 12 12 13 13 13 12 11 9 8 8 8 8 8 9 7 6 5 4 3 1 1 0 0 1 1 2 4 5
9 11 11 12 12 11 11 10 9 9 9 8 9 11 12 12 12 12 11 11 10 10 10 9 11 12 13 12 12 13 13 13 13 13 13 13 13 13 13 13 13 13 13 13 13 13 13 11 9 8 8 8 7 8 8 7 6 5 5 4 2 2 2 2 3 3 5 6 7
10 11 12 12 11 11 11 11 11 10 10 10 11 12 12 12 12 12 11 10 10 11 11 11 12 13 14 14 13 13 12 12 12 12 12 12 13 13 13 13 13 13 13 13 14 15 14 11 9 8 7 7 8 9 10 9 7 6 5 4 3 3 3 4 5 6 7 8 9
11 11 11 11 11 11 11 11 11 11 11 12 12 12 12 11 11 11 11 10 11 12 12 12 13 14 14 14 13 13 12 11 10 11 11 11 12 12 13 12 12 13 13 13 13 14 14 10 8 7 7 7 10 13 13 11 8 7 6 5 5 6 7 7 8 8 9 9 10
11 11 11 10 11 11 11 11 11 11 11 11 12 12 12 11 11 12 11 11 12 13 14 14 14 14 14 13 13 12 11 10 9 10 11 11 11 12 12 11 12 12 13 13 12 12 11 9 9 9 9 8 11 13 13 12 10 9 9 8 8 9 10 10 10 10 10 10 11
11 11 11 11 11 11 11 11 11 11 11 12 12 12 12 12 12 13 13 14 14 14 14 14 14 14 14 12 12 11 11 10 10 10 10 11 11 11 12 12 12 12 12 12 11 10 10 10 11 12 12 11 10 10 12 14 14 13 12 11 11 11 11 12 12 11 10 11 12
11 11 11 11 11 11 11 11 10 10 11 12 12 12 11 12 13 13 14 14 14 13 13 13 13 13 13 12 12 11 11 10 11 10 10 10 10 11 12 12 12 12 12 11 11 10 10 11 12 12 13 12 10 11 13 16 16 15 14 13 12 12 12 12 13 12 12 12 12
11 11 11 11 11 11 10 10 10 10 10 12 11 11 11 11 12 12 12 12 13 12 12 12 12 11 12 12 12 12 11 11 11 11 11 10 11 11 12 11 12 12 12 11 11 11 11 11 11 12 12 13 13 13 14 15 16 16 15 14 13 13 13 13 13 13 12 12 12
12 11 11 11 10 10 9 10 9 9 10 11 11 10 10 10 10 10 10 11 11 11 10 10 10 11 11 12 12 12 12 11 11 11 11 11 11 11 12 12 12 12 11 11 10 10 11 11 11 11 12 12 13 13 14 14 15 15 15 14 14 13 13 13 13 12 12 11 11
12 11 11 10 10 9 9 9 8 8 9 9 10 10 9 9 9 9 9 9 9 8 9 10 10 10 11 11 12 12 12 11 11 11 11 11 11 11 11 11 11 11 11 11 10 10 10 10 10 10 11 11 12 12 13 13 13 14 14 14 14 13 13 13 12 11 11 11 10
12 11 11 10 10 10 9 9 8 8 8 9 10 9 9 8 8 8 8 8 8 8 9 10 10 10 10 11 11 11 11 11 10 10 10 10 10 10 9 9 9 9 9 9 9 9 9 9 8 9 9 9 9 10 10 11 11 12 12 13 13 12 12 12 12 11 10 10 10
12 11 11 10 10 10 10 9 9 9 9 10 9 9 8 8 8 8 8 8 8 9 10 11 10 10 10 11 10 9 9 9 9 9 9 9 8 8 8 7 7 7 7 7 7 7 8 8 7 7 7 7 8 8 8 9 9 10 10 11 12 12 12 12 11 10 10 9 9
12 11 11 10 10 10 10 10 9 9 9 9 8 8 8 8 9 9 9 9 9 10 10 10 10 9 9 10 9 8 7 7 8 8 7 7 7 6 6 6 6 6 6 6 6 6 6 6 7 7 7 7 7 8 8 8 8 9 9 10 11 12 12 12 12 11 11 11 11
12 11 11 10 10 10 10 9 9 9 9 8 7 7 7 8 8 9 9 10 10 10 10 9 9 8 8 7 7 6 6 5 6 6 6 6 6 6 6 6 6 6 6 6 6 6 6 6 7 7 8 8 8 8 9 8 8 9 9 9 10 11 12 13 12 12 12 12 12
12 11 11 10 10 10 10 9 9 8 8 8 7 7 7 7 7 8 8 8 8 8 8 7 7 6 6 6 6 6 5 4 5 5 6 6 6 6 6 6 6 6 6 6 6 6 7 7 8 8 8 8 9 9 9 9 9 9 9 8 9 10 11 12 12 12 12 11 12
12 11 10 10 10 10 10 9 8 8 8 8 7 7 6 6 6 6 6 6 6 6 6 6 6 5 6 6 6 6 6 5 5 5 5 6 6 6 6 6 6 6 6 6 6 7 7 7 8 8 9 8 9 9 9 9 9 9 9 9 10 10 11 11 11 11 11 11 11
11 10 10 10 10 10 10 9 9 8 8 8 8 7 7 6 6 6 6 5 5 5 6 6 6 6 6 7 7 7 7 6 6 6 6 6 6 6 6 6 6 6 6 5 6 6 7 7 8 8 8 8 9 9 9 9 9 9 9 10 10 10 10 10 10 10 11 11 11
11 10 10 9 10 10 10 9 9 9 9 9 9 9 8 7 6 6 6 6 5 6 6 6 6 6 7 7 7 7 7 7 7 7 6 6 7 7 7 7 6 6 5 4 3 4 4 5 6 7 8 8 8 9 9 9 9 9 10 10 10 10 10 10 10 10 11 12 11
10 10 10 9 10 9 9 8 9 9 9 9 9 9 8 7 6 6 6 6 6 6 6 7 6 6 6 7 7 7 7 7 7 6 6 6 7 7 7 7 6 5 4 3 1 0 1 3 5 6 7 8 8 8 9 9 9 10 10 10 10 10 11 11 11 11 12 12 12
9 9 10 10 9 9 8 8 8 9 9 9 8 8 8 7 6 6 6 6 6 6 6 7 6 5 5 6 7 7 7 6 6 7 7 7 7 7 7 7 6 5 4 2 1 2 2 3 4 6 7 8 8 8 9 9 10 10 11 11 11 11 11 11 11 12 12 12 13
9 9 9 9 8 8 8 8 8 8 8 7 7 7 7 7 7 7 7 7 6 7 7 7 6 5 5 6 7 7 7 7 7 7 7 7 7 8 8 7 7 5 3 1 4 3 1 2 4 6 7 8 8 8 9 9 10 11 11 11 11 12 12 12 12 12 12 12 13
10 9 8 8 8 8 7 7 7 7 7 7 7 7 7 7 8 8 8 7 7 7 7 6 6 6 5 6 7 8 8 8 7 7 7 7 8 8 8 8 8 6 1 5 6 4 1 2 4 6 7 7 8 8 9 10 10 10 11 11 11 12 12 12 12 12 12 12 12
9 8 7 7 7 7 7 6 6 6 6 7 7 7 7 7 8 8 8 8 8 7 7 6 6 6 6 7 8 8 9 8 7 7 7 7 8 8 9 9 10 5 4 10 8 5 3 2 4 5 6 7 7 7 8 9 9 10 10 10 11 11 12 12 11 11 11 12 12
7 7 7 7 7 6 6 6 6 6 6 6 7 7 8 8 9 9 9 9 8 7 7 7 7 7 8 8 9 9 8 8 7 7 8 8 9 9 9 10 11 5 6 11 8 5 3 2 3 4 6 7 7 8 9 9 10 10 11 11 12 13 14 14 14 14 13 12 12
6 6 7 7 6 6 6 6 6 6 6 6 7 7 8 9 9 10 10 9 8 8 8 8 9 9 10 10 9 9 9 8 8 8 8 9 9 9 10 11 11 5 8 10 7 5 3 2 3 4 6 7 7 8 9 10 11 11 11 12 13 14 15 14 14 14 14 14 14
6 6 6 6 6 6 6 6 6 6 6 7 7 8 8 9 10 10 10 9 8 8 9 9 10 10 11 11 10 10 10 9 9 8 8 9 9 10 10 12 9 5 8 8 6 4 2 2 3 5 6 8 8 9 11 11 12 12 13 14 15 16 16 14 13 14 15 15 14
6 6 6 6 6 6 6 6 6 6 7 7 8 8 9 9 10 10 10 9 8 9 9 10 11 11 11 11 11 10 10 9 9 9 9 9 10 10 10 12 7 4 8 6 5 3 1 2 3 5 7 9 9 10 11 12 11 11 12 13 14 15 16 16 15 14 14 14 13
6 6 6 5 6 6 7 7 7 7 8 8 9 9 9 10 10 10 10 9 9 9 9 10 10 11 10 10 10 10 9 8 9 9 10 10 10 10 10 11 6 3 8 5 4 2 0 2 4 7 8 10 10 10 12 13 12 12 13 14 14 15 15 15 15 15 14 14 13
7 6 5 5 6 7 7 7 8 8 9 9 9 10 10 10 10 10 10 9 9 10 10 10 10 10 10 10 10 9 9 9 9 9 10 10 10 10 10 11 8 1 6 5 3 1 1 3 5 8 9 10 9 10 11 13 13 13 14 14 15 15 15 15 14 14 13 13 12
5 4 3 5 6 7 7 8 8 8 9 9 10 10 10 10 10 10 10 10 10 10 11 11 10 10 10 10 9 9 9 10 10 10 10 9 10 10 10 11 10 6 1 4 2 1 2 5 6 8 10 10 9 10 10 11 11 12 13 14 14 14 14 14 13 12 12 11 11
2 2 4 6 6 6 7 7 8 9 9 9 10 10 11 11 11 11 11 10 11 11 11 11 11 11 10 10 10 10 10 10 10 10 10 9 10 10 11 11 11 10 8 3 2 2 4 6 7 9 10 10 9 10 10 10 10 11 12 13 13 13 13 12 12 12 11 11 11
3 5 5 6 6 6 7 7 8 9 9 10 10 10 11 11 11 11 11 10 11 11 11 11 11 11 11 11 10 10 11 11 10 10 10 10 10 10 11 11 11 11 10 7 5 5 5 7 8 9 10 9 10 10 10 9 9 10 10 11 11 12 12 10 10 10 11 11 11
5 5 5 5 6 7 7 8 8 9 9 10 11 11 12 12 11 11 10 10 10 11 11 11 11 11 11 11 10 11 11 11 11 10 10 10 10 10 10 11 11 11 10 8 6 5 5 7 8 10 10 10 10 9 9 9 10 10 10 10 10 11 11 10 9 8 9 11 12
5 5 5 6 6 7 8 8 8 9 9 10 11 12 12 12 11 11 11 10 10 11 11 11 12 12 11 10 11 11 12 12 12 11 10 10 10 10 10 10 11 11 11 9 6 4 5 6 8 9 10 9 9 8 8 8 9 10 10 9 9 9 9 9 8 8 8 10 11
5 5 6 6 7 8 8 9 9 10 10 11 12 12 11 11 11 11 11 10 11 11 10 10 11 12 12 11 10 11 12 13 13 12 11 11 10 10 10 10 11 12 11 10 7 5 5 6 7 8 8 7 8 8 8 8 8 9 10 10 9 9 9 9 9 9 9 10 10
Wind_Direction
288 288 289 289 285 283 283 286 290 294 298 302 308 313 315 315 313 312 312 312 311 312 311 310 309 308 307 308 307 306 305 303 299 296 292 289 286 283 281 280 281 283 286 289 290 291 290 289 287 288 289 291 290 287 283 276 274 275 277 277 281 285 287 284 280 279 281 286 300
305 307 305 287 265 269 281 294 298 299 302 307 311 314 314 312 310 309 309 310 310 309 309 307 307 307 307 308 307 306 304 302 299 296 292 289 286 283 280 276 277 280 285 290 291 291 290 290 291 292 293 293 290 286 282 276 276 278 279 278 279 280 280 276 270 267 267 268 265
306 305 301 295 295 299 305 308 306 306 308 310 313 313 311 308 307 307 307 308 308 308 307 307 309 309 310 309 308 305 303 301 299 297 294 291 289 287 285 283 282 283 285 286 287 288 290 294 296 297 296 294 288 284 281 279 277 276 276 276 274 269 264 261 252 243 235 228 223
291 297 303 309 313 314 311 307 305 307 309 311 310 308 306 304 304 304 305 306 307 308 309 311 311 312 312 311 308 305 302 300 299 297 295 292 290 290 290 290 290 290 289 288 289 290 293 296 297 295 292 287 282 280 278 277 269 264 261 263 262 259 255 253 239 227 224 225 217
293 303 308 309 308 305 302 300 303 306 308 309 306 303 302 302 302 304 305 307 309 310 311 311 312 312 312 309 307 305 303 301 299 297 293 289 287 287 288 289 289 289 289 290 291 293 294 295 292 289 286 282 279 276 273 270 263 256 249 245 245 249 254 256 213 170 179 194 200
308 309 307 304 301 299 297 298 301 303 305 304 302 301 302 303 305 307 308 309 309 309 309 309 309 308 307 307 306 305 303 302 299 296 293 290 289 288 287 287 287 287 288 289 291 291 292 291 287 284 281 280 275 270 265 260 256 250 245 242 240 247 284 43 89 137 200 210 208
313 309 306 303 301 299 298 299 300 300 300 299 300 301 303 304 305 307 308 309 308 309 309 309 308 307 306 306 305 304 303 301 298 297 297 296 295 293 292 290 289 289 289 289 289 289 288 287 284 282 280 277 273 265 258 248 240 234 232 229 218 179 126 165 190 213 221 221 215
310 307 305 304 303 302 301 301 301 300 300 299 301 301 302 303 305 307 309 309 311 313 314 312 310 308 307 306 304 302 300 297 296 297 297 297 297 297 296 294 293 292 291 291 291 291 291 290 289 288 286 282 277 271 262 248 236 230 227 222 211 204 209 225 215 212 215 219 217
305 304 304 303 303 302 302 302 301 301 300 299 299 300 301 303 307 310 312 314 317 318 317 314 311 310 308 306 303 300 297 296 295 295 296 296 297 298 298 298 298 298 298 300 301 302 302 302 303 304 304 302 294 286 276 262 246 235 231 230 222 215 216 225 219 214 213 216 216
304 303 303 302 302 302 301 302 301 300 299 298 299 301 304 308 313 317 320 323 323 321 318 314 313 311 309 307 303 300 298 297 298 298 298 298 300 301 303 305 310 313 317 321 320 318 317 317 321 325 324 317 300 289 281 271 259 245 236 232 227 223 221 220 218 215 213 214 215
303 303 303 303 303 303 303 303 302 301 301 301 304 308 314 319 323 326 327 327 324 320 317 315 314 312 310 307 305 304 304 305 306 306 306 307 310 314 318 324 331 335 336 337 334 330 327 330 334 333 328 318 303 293 285 278 270 258 247 240 233 228 224 218 215 213 212 212 213
304 304 304 303 303 304 304 305 305 306 307 309 315 320 325 329 331 331 330 327 323 319 317 316 315 313 311 309 309 310 311 312 313 313 315 320 327 333 338 344 346 345 342 339 337 334 333 334 334 331 326 319 307 298 292 288 281 270 257 246 238 231 225 218 215 212 210 209 209
306 305 304 303 303 305 306 308 310 313 316 320 326 330 333 333 333 331 329 326 323 320 318 318 316 315 313 313 315 317 318 319 320 323 329 338 345 348 348 348 346 343 339 337 337 335 333 331 329 325 320 314 305 298 295 293 287 279 267 254 242 233 226 220 216 214 212 210 209
306 304 303 303 305 309 312 316 318 322 326 329 333 334 333 331 330 329 328 326 324 322 322 321 320 319 319 320 323 325 327 329 333 338 343 350 352 351 347 344 342 339 337 336 335 333 331 327 325 321 317 312 310 307 304 301 295 287 277 263 250 238 229 223 219 216 215 214 214
304 303 303 305 310 315 320 324 326 328 330 331 331 330 329 327 328 329 329 327 326 327 328 328 326 325 325 328 333 335 338 340 344 346 347 349 348 347 345 342 340 339 337 336 335 334 333 331 330 328 327 325 325 324 322 319 311 303 292 279 265 252 241 233 226 221 218 218 220
303 303 306 310 316 321 326 328 328 328 327 325 325 325 324 324 327 328 328 326 329 331 333 332 330 329 332 337 342 344 344 345 347 346 345 345 345 345 344 343 341 340 339 339 339 339 340 341 342 341 340 339 338 338 337 334 329 322 313 302 288 275 263 254 245 237 229 225 226
303 306 310 315 320 323 325 325 323 322 321 320 321 322 324 324 325 323 322 325 332 335 334 333 332 333 337 342 347 347 345 345 345 345 344 344 345 345 345 343 342 342 343 343 343 343 344 347 348 347 345 342 341 340 340 340 338 335 331 324 315 303 291 282 273 263 253 244 239
305 308 313 317 320 321 320 319 317 316 316 317 320 322 323 321 321 320 323 331 340 341 338 334 335 338 343 346 349 349 347 346 345 346 346 345 344 343 343 341 341 342 344 344 342 341 341 342 344 343 340 338 336 335 335 335 335 336 335 334 330 325 319 312 305 297 290 282 271
306 309 312 316 317 317 316 315 314 314 314 317 318 319 318 318 322 326 332 340 348 347 342 338 340 344 348 349 350 350 349 347 346 346 345 341 339 339 338 337 338 339 340 338 336 336 336 338 339 338 335 333 330 329 327 327 328 330 331 331 331 330 330 328 328 326 323 318 309
306 309 312 315 316 315 314 313 312 311 311 312 311 311 313 320 329 336 342 347 350 348 344 341 343 346 349 349 347 346 346 345 344 342 340 336 335 336 336 335 335 335 334 332 331 332 333 336 336 334 331 330 326 324 323 323 323 324 325 325 325 324 325 326 327 328 327 324 319
307 310 313 315 315 314 313 310 309 305 302 300 301 306 315 328 337 345 350 351 349 344 341 340 343 343 341 339 337 337 338 340 338 336 334 332 332 332 332 329 330 329 328 327 327 330 332 335 333 331 328 324 321 320 320 319 318 318 318 317 316 315 316 317 318 318 317 315 313
310 312 314 315 313 312 309 306 301 297 294 295 303 315 328 339 344 349 351 348 343 337 333 332 334 333 331 330 329 329 329 329 329 329 328 328 326 325 323 320 319 319 319 320 324 327 330 331 328 325 322 318 317 316 315 314 313 312 310 308 306 306 307 307 308 307 306 305 302
312 314 314 313 311 308 306 303 300 298 300 306 319 331 342 348 348 346 344 340 337 331 328 326 327 329 329 328 325 323 322 323 324 325 325 324 322 318 315 309 306 305 307 313 319 322 324 324 321 319 317 315 314 312 311 309 307 304 302 300 298 297 296 296 296 295 294 293 290
314 315 314 311 308 307 306 307 307 312 320 330 339 346 351 352 348 343 338 334 334 331 328 324 326 328 328 323 319 318 319 320 320 321 321 319 316 313 310 305 300 299 302 309 317 321 319 316 316 316 315 313 311 309 307 304 300 297 294 292 289 287 285 283 281 279 279 278 276
315 314 310 307 306 308 311 316 323 332 341 348 349 350 349 347 343 338 334 332 333 330 326 320 323 324 322 314 313 314 315 314 314 313 313 312 310 310 308 305 304 307 310 314 343 6 286 296 307 311 313 311 308 305 303 299 295 292 290 287 284 281 278 274 271 268 267 267 266
313 309 306 305 309 316 324 335 343 349 352 352 348 344 341 337 335 332 330 328 329 327 323 317 320 319 313 306 308 311 312 310 309 309 310 310 311 311 310 307 307 306 307 320 118 142 180 266 294 303 306 306 305 303 300 298 295 292 290 287 284 281 278 274 271 267 264 262 261
307 305 307 313 322 331 340 348 352 352 350 346 340 337 334 333 329 326 325 324 325 323 320 316 318 313 306 304 309 311 312 310 311 312 314 315 314 313 310 307 304 301 300 89 123 131 160 289 304 306 306 305 303 301 299 297 294 292 289 286 283 280 277 275 272 270 266 262 261
311 314 320 329 337 344 347 349 348 347 343 337 334 332 331 329 326 323 321 320 320 320 318 317 318 315 311 311 313 313 311 310 313 316 319 321 317 314 311 307 303 301 300 120 120 116 89 334 321 317 313 309 305 300 297 295 293 291 289 285 283 280 278 276 274 273 271 269 266
320 327 334 343 350 351 348 344 343 340 336 331 330 329 329 328 323 320 317 316 317 318 320 322 321 320 317 315 313 311 310 312 317 321 324 324 320 316 312 309 304 316 89 112 110 102 74 2 333 326 324 321 311 305 301 299 296 294 292 290 288 286 284 282 280 278 277 276 274
326 336 346 356 357 351 342 335 335 333 331 327 327 328 328 326 321 318 316 315 317 320 322 323 321 320 318 315 312 312 313 318 324 328 329 326 322 317 314 313 311 339 82 106 101 91 70 20 345 337 334 330 315 307 301 299 297 295 294 292 290 289 288 287 285 283 282 281 281
343 354 359 2 355 343 331 325 326 326 325 323 325 327 327 324 320 318 316 316 317 319 320 319 320 319 318 316 315 315 318 323 328 329 328 324 320 318 317 315 320 359 80 101 93 83 65 21 349 339 334 329 315 305 299 296 294 292 290 288 288 288 288 287 287 286 285 284 284
13 12 8 1 346 330 319 317 319 320 320 320 323 325 325 321 318 317 316 315 315 316 318 320 321 320 319 318 317 318 321 325 327 326 323 319 317 318 318 314 331 33 92 105 96 87 66 9 340 333 328 324 311 302 297 292 289 286 284 283 283 283 284 284 284 284 285 285 285
29 22 12 358 335 319 311 311 314 317 319 320 323 322 320 317 314 312 311 311 313 316 319 321 321 321 320 319 318 319 321 324 323 320 317 315 315 318 318 311 335 65 109 123 116 109 81 344 333 330 327 321 310 301 295 290 287 284 283 283 283 283 284 284 285 286 286 286 287
33 23 11 350 324 310 306 308 314 319 322 322 320 317 314 310 308 308 309 312 317 319 321 320 320 319 318 318 317 319 321 322 319 317 316 315 315 317 316 309 330 84 122 145 137 131 58 337 334 332 327 320 309 301 296 293 289 287 286 286 286 287 288 289 288 288 288 289 290
33 21 2 328 308 303 305 313 320 323 322 319 314 310 307 305 306 308 313 318 321 321 319 318 317 316 315 315 316 317 319 318 317 317 317 316 314 314 311 306 322 56 138 158 149 134 354 340 337 333 328 319 309 301 298 295 293 291 291 290 290 290 290 290 290 290 291 293 295
32 7 323 294 293 300 310 318 320 317 313 308 305 304 305 307 310 314 318 322 321 319 317 315 314 313 313 314 316 317 318 318 317 317 317 316 313 310 307 305 312 310 243 160 145 68 349 341 338 333 327 318 310 304 301 299 296 295 294 294 294 294 295 295 296 298 300 302 304
7 285 272 275 288 300 309 312 308 304 301 300 302 306 310 314 316 319 321 323 320 317 314 313 311 312 313 315 317 319 319 318 317 317 316 314 311 308 306 306 307 311 314 310 347 354 346 340 338 334 329 319 313 308 304 301 299 298 298 298 299 301 303 304 305 306 307 308 309
249 253 260 272 288 296 298 295 294 295 300 305 311 316 319 320 320 321 321 320 316 313 312 311 311 312 315 318 318 319 318 316 315 314 314 313 311 309 308 306 306 308 310 313 323 335 341 341 340 338 332 322 315 310 306 303 302 303 304 306 305 307 308 309 309 309 308 307 307
247 258 270 282 288 289 288 288 294 302 311 318 322 324 324 323 321 320 319 315 312 311 310 311 312 314 316 319 318 317 316 315 314 314 314 313 312 311 308 305 302 301 301 303 309 327 343 345 343 339 333 322 316 311 308 306 307 308 308 308 307 306 307 306 306 305 304 302 300
259 269 278 284 286 288 292 299 310 320 326 328 328 327 325 323 319 316 314 310 310 310 311 312 314 315 316 318 316 315 316 316 316 315 314 312 311 308 304 299 297 296 295 295 300 324 347 347 342 337 331 321 317 314 311 310 309 308 308 307 306 306 306 306 305 304 303 301 298
273 276 281 287 295 303 312 321 328 332 333 331 328 326 323 320 316 313 312 311 312 313 314 313 314 314 315 315 315 316 318 318 316 314 311 308 307 303 300 296 295 294 295 295 302 320 339 338 333 329 325 320 317 314 311 310 307 307 306 307 307 307 307 308 307 305 302 299 297